Preview of NWS' New Version of Forecast
This preview is not operational and should not be used for support decisions.
Latest weather observations around

Olathe, New Century Aircenter (KIXD)

Using English Units (Switch to International System of Units)
Date/ Time (CDT) Wind (mph) Vis. (mi) Weather Sky Cond. Temp (°F) Rel. Humidity Wind Chill (°F) Heat Index (°F) Pressure Precip. (in)
Air Dwpt 6 hour Altimeter (inHg) Sea level (inHg) 1 hr 3 hr 6 hr
Max Min
Mar 26 00:53 NE 5 10 Clear CLR 44 38     79% 41   30.35 30.35      
Mar 25 23:53 NNE 7 10 Clear CLR 43 37     79% 39   30.34 30.35      
Mar 25 22:53 Calm 10 Clear CLR 41 37     86%     30.33 30.34      
Mar 25 21:53 NNE 5 10 Clear CLR 45 40     82% 43   30.33 30.33      
Mar 25 20:53 N 7 10 Cloudy FEW043 OVC090 48 41     77% 45   30.31 30.32      
Mar 25 19:53 NNW 6 10 Clear CLR 45 39     80% 42   30.3 30.3      
Mar 25 18:53 N 7 10 Cloudy OVC085 51 42     71%     30.28 30.29      
Mar 25 17:53 N 8 10 Cloudy FEW034 OVC085 53 42     66%     30.28 30.28      
Mar 25 16:53 NNW 7 10 Cloudy FEW027 BKN034 OVC080 53 42     66%     30.29 30.29      
Mar 25 16:18 NNW 6 10 Cloudy SCT026 OVC034 52 42     69%     30.29        
Mar 25 15:53 N 7 10 Cloudy BKN026 OVC032 51 42     71%     30.29 30.29      
Mar 25 14:53 N 10 10 Cloudy OVC021 50 43     77%     30.29 30.29      
Mar 25 13:53 N 10 10 Cloudy OVC019 50 43     77%     30.29 30.29      
Mar 25 12:53 N 14 10 Cloudy OVC016 50 44     80%     30.28 30.28      
Mar 25 12:42 N 13 10 Cloudy OVC014 50 44     80%     30.28        
Mar 25 11:53 NNE 14 10 Cloudy OVC015 50 44     80%     30.27 30.27      
Mar 25 11:10 NNE 14 8 Cloudy OVC011 48 45     89% 42   30.26        
Mar 25 10:53 N 11 8 Cloudy OVC009 47 46     97% 42   30.26 30.27      
Mar 25 09:53 N 10 6 Fog/Mist OVC008 47 46     97% 42   30.25 30.25      
Mar 25 09:20 N 14 6 Fog/Mist OVC009 47 46     97% 41   30.24        
Mar 25 08:53 N 13 7 Cloudy OVC010 47 46     97% 41   30.22 30.22      
Mar 25 08:50 N 11 7 Cloudy OVC010 46 46     100% 41   30.22        
Mar 25 07:53 N 13 4 Fog/Mist OVC006 46 46     100% 40   30.21 30.21      
Mar 25 06:53   6 Clear   46 46     100%     30.18 30.18      
Mar 25 05:53 NNW 14 5 Fog/Mist OVC005 47 46     97% 41   30.16 30.15      
Mar 25 05:38 NNW 14 5 Fog/Mist OVC005 47 46     97% 41   30.15        
Mar 25 04:53 NNW 13 3 Fog/Mist OVC004 47 47     100% 41   30.14 30.14      
Mar 25 04:34 NNW 10 3 Fog/Mist OVC003 47 47     100% 42   30.14        
Mar 25 03:53 NNW 13 2.5 Fog/Mist OVC004 47 47     100% 41   30.13 30.13 0 0  
Mar 25 03:47 NNW 13 2.5 Fog/Mist OVC004 46 46     100% 41   30.13   0    
Mar 25 03:10 NNW 10 4 Light Rain and Fog/Mist OVC005 47 47     100% 42   30.13   0    
Mar 25 03:01 NNW 11 2.5 Light Rain and Fog/Mist OVC006 47 47     100% 42   30.13   0    
Mar 25 02:53 NNW 10 3 Light Rain and Fog/Mist OVC006 47 47     100% 42   30.13 30.13 0    
Mar 25 01:53 NW 10 9 Cloudy OVC008 49 47     93% 45   30.12 30.12      
Mar 25 01:38 NW 10 9 Cloudy OVC009 49 47     93% 45   30.12        
Mar 25 00:53 NNW 10 10 Cloudy OVC010 49 47     93% 45   30.11 30.1 0   0
Mar 24 23:53 NW 13 9 Cloudy OVC011 50 48     93%     30.1 30.1      
Mar 24 23:45 NNW 11 10 Cloudy BKN011 OVC022 50 48     93%     30.1        
Mar 24 22:53 NNW 13 10 Cloudy FEW011 OVC029 50 48     93%     30.08 30.08      
Mar 24 22:45 NNW 15 10 Cloudy SCT011 OVC031 51 48     89%     30.08        
Mar 24 22:30 NNW 16 10 Cloudy BKN012 OVC032 51 48     89%     30.08        
Mar 24 21:53 NNW 14 10 Cloudy BKN032 OVC040 51 48     89%     30.07 30.06      
Mar 24 20:53 NNW 14 10 Cloudy OVC050 52 47     83%     30.05 30.05      
Mar 24 19:53 NNW 13 10 Cloudy BKN035 OVC050 54 46     74%     30.03 30.03      
Mar 24 18:53 WNW 8 10 Cloudy FEW034 OVC050 55 45     69%     30.01 30.01     0
Mar 24 17:53 NW 7 10 Cloudy FEW029 OVC040 56 45     67%     29.99 29.99      
Mar 24 16:53 W 10 10 Cloudy OVC043 56 45     67%     29.98 29.98      
Mar 24 15:53 W 11 10 Cloudy OVC038 55 45     69%     29.97 29.97   0  
Mar 24 15:02 W 10 10 Cloudy SCT027 OVC036 55 45     69%     29.97        
Mar 24 14:53 W 11 10 Cloudy BKN027 OVC035 54 44     69%     29.97 29.97      
Mar 24 13:53 W 13 10 Cloudy OVC023 54 45     72%     29.97 29.97 0    
Mar 24 12:53 W 11 10 Cloudy OVC019 54 45     72%     29.97 29.97      
Mar 24 11:53 W 16 10 Mostly Cloudy BKN021 56 46     69%     29.97 29.96      
Mar 24 11:10 W 14 10 Mostly Cloudy BKN023 58 47     67%     29.97        
Mar 24 11:06 WSW 13 10 Partly Cloudy SCT023 57 47     69%     29.97        
Mar 24 10:53 WSW 16 10 Mostly Cloudy BKN020 56 47     72%     29.97 29.96      
Mar 24 10:29 WSW 10 10 Mostly Cloudy BKN016 54 47     77%     29.96        
Mar 24 10:15 WSW 11 10 Mostly Cloudy BKN013 54 47     77%     29.96        
Mar 24 09:56 SW 11 10 Cloudy OVC011 52 49     89%     29.96        
Mar 24 09:53 WSW 11 10 Mostly Cloudy BKN009 52 49     89%     29.96 29.96      
Mar 24 08:53 SSW 9 8 Cloudy OVC006 51 50     96%     29.96 29.96      
Mar 24 08:44 SSW 10 8 Cloudy OVC005 51 50     96%     29.96        
Mar 24 08:31 SSW 10 7 Cloudy OVC004 51 50     96%     29.96        
Mar 24 07:53 S 7 5 Fog/Mist OVC005 49 48     97% 46   29.95 29.94      
Mar 24 06:53 SSE 6 8 Cloudy OVC006 49 48     97% 46   29.96 29.95     0
Mar 24 05:53 S 6 9 Cloudy OVC007 48 47     96% 45   29.95 29.94      
Mar 24 05:10 SSW 8 9 Cloudy OVC009 49 47     93% 45   29.96        
Mar 24 04:53 S 7 10 Cloudy OVC011 49 47     93% 46   29.96 29.96 0    
Mar 24 04:02 S 7 10 Cloudy BKN014 OVC023 49 46     90% 46   29.96        
Mar 24 03:53 SSE 9 10 Cloudy SCT014 OVC023 49 46     90% 45   29.96 29.96      
Mar 24 03:18 SSE 10 10 Cloudy BKN023 OVC100 49 46     90% 45   29.97        
Mar 24 02:53 SSE 9 10 Cloudy FEW023 OVC100 48 45     89% 44   29.97 29.97      
Mar 24 01:53 SSE 11 10 Mostly Clear FEW033 48 45     89% 43   29.98 29.98      
Mar 24 00:53 SSE 14 10 Clear CLR 49 45     86% 44   30 29.99     0
Mar 23 23:53 SSE 14 10 Partly Cloudy SCT046 50 45     83%     30.01 30.01      
Mar 23 22:53 SSE 13 10 Cloudy OVC031 51 45     79%     30.03 30.03      
Mar 23 22:23 SSE 15 10 Cloudy SCT023 OVC032 51 45     79%     30.03        
Mar 23 21:53 SE 15 10 Cloudy OVC025 51 45     79%     30.03 30.03 0 0  
Mar 23 20:53 SE 13 6 Light Rain and Fog/Mist OVC027 51 49     92%     30.04 30.03 0    
Mar 23 20:20 SE 9 10 Light Rain OVC029 52 49     89%     30.04   0    
Mar 23 19:53 SSE 17 10 Cloudy OVC033 54 48     80%     30.03 30.03 0    
Mar 23 18:53 SSE 10 10 Cloudy FEW023 OVC043 55 48     77%     30.01 30.01      
Mar 23 18:39 S 10 10 Cloudy SCT025 OVC045 56 48     75%     30.01        
Mar 23 18:06 SSW 11 10 Cloudy BKN027 OVC047 57 48     72%     30.01        
Mar 23 17:53 S 8 10 Mostly Cloudy SCT029 BKN047 57 47     69%     30.01 30.01      
Mar 23 16:53 S 8 10 Mostly Cloudy FEW028 SCT047 BKN060 57 47     69%     30.01 30.01      
Mar 23 15:53 SSE 17 10 Mostly Clear FEW029 FEW060 57 48     72%     30.02 30.01      
Mar 23 15:35 S 15 10 Mostly Cloudy SCT027 SCT047 BKN055 58 48     70%     30.03        
Mar 23 15:14 S 16 10 Cloudy BKN026 OVC047 58 48     70%     30.04        
Mar 23 14:53 S 13 10 Cloudy SCT026 BKN049 OVC060 58 48     70%     30.04 30.03      
Mar 23 13:53 SSE 16 10 Cloudy BKN050 OVC060 56 46     69%     30.06 30.05      
Mar 23 12:53 S 7 10 Mostly Cloudy BKN080 BKN090 55 45     69%     30.06 30.05 0   0
Mar 23 11:53   10 Light Rain BKN075 OVC090 53 41     63%     30.05 30.04 0    
Mar 23 10:53 S 7 10 Clear   51 39     63%     30.13 30.13 0    
Mar 23 09:53 ESE 13 10 Cloudy OVC100 50 33     52%     30.08 30.07      
Mar 23 08:53 ESE 10 10 Mostly Clear FEW120 49 32     52% 45   30.1 30.09      
Mar 23 07:53 ESE 9 10 Clear CLR 49 31     50% 45   30.1 30.09      
Mar 23 06:53 ESE 8 10 Mostly Clear FEW110 49 30     48% 45   30.1 30.09      
Mar 23 05:53 ESE 7 10 Cloudy BKN100 OVC120 50 30     46%     30.11 30.1      
Mar 23 04:53 ESE 8 10 Cloudy OVC100 50 30     46%     30.11 30.1      
Mar 23 03:53 ESE 6 10 Mostly Cloudy FEW070 SCT090 BKN110 51 29     42%     30.13 30.11      
Mar 23 02:53 E 8 10 Mostly Cloudy BKN110 50 29     44%     30.13 30.12      
Mar 23 01:53 E 7 10 Mostly Clear FEW120 50 28     42%     30.13 30.11      
Mar 23 00:53 E 7 10 Clear CLR 51 28     41%     30.12 30.11      
May 14 19:53 WNW 7 10 Clear   74 58     57%   74 29.82 29.79      
May 14 16:53 SSW 7 10 Mostly Clear FEW041 FEW060 81 69     67%   84 29.83 29.79      
May 14 11:53 SSW 15 10 Clear CLR 83 68     61%   86 29.94 29.9      
May 14 10:53 S 8 10 Clear CLR 84 68     59%   87 29.93 29.89      
May 13 16:53 S 15 10 Mostly Clear FEW050 90 69     50%   95 29.88 29.84      
May 12 15:53 S 16 10 Cloudy OVC055 82 68     63%   85 29.88 29.84      
May 12 14:53 S 17 10 Mostly Cloudy BKN049 83 67     59%   86 29.88 29.84      
May 12 03:53 SSW 11 10 Mostly Clear FEW100 FEW120 74 63     69%   74 29.85 29.81      
May 11 11:53 S 23 10 Partly Cloudy and Windy SCT036 80 63     56%   81 29.77 29.74      
Jun 11 14:53 S 17 10 Clear CLR 90 68     49%   94 29.83 29.79      
Jun 11 04:53 S 11 10 Clear CLR 72 64     76%   72 29.84 29.8      
Jun 10 18:53 S 22 10 Clear and Windy CLR 84 68     59%   87 29.75 29.71      
Jun 10 10:53   10 Clear CLR 79 65     62%   80 29.83 29.79      
Jun 09 04:53 S 3 10 Clear CLR 58 53     84%     29.9 29.87      
Jun 08 13:53 SSE 9 10 Clear CLR 80 50     35%   79 30.02 29.98      
Jun 08 08:53 S 6 10 Clear CLR 69 56     63%     30.08 30.05      
Jun 07 21:53 ESE 3 10 Clear CLR 67 51     57%     30.06 30.03      
Jun 07 10:53 E 10 10 Clear CLR 75 45     34%   74 30.13 30.1      
Jun 06 10:53 NE 9 10 Clear CLR 76 56     50%   76 30.02 29.99      
Jun 06 06:53 ENE 7 10 Clear CLR 67 57     71%     29.99 29.95      
Jun 05 21:53 NE 5 10 Clear   75 53     46%   74 29.88 29.84